This is the latest recevied weather packets stored in our database for station/object N8BAP. If no packets are shown the sender has not sent any weather packets the latest 10 day(s).
| Time | Temp. | Humidity | Pressure | Rain* | Wind** | Luminosity | Snow |
|---|---|---|---|---|---|---|---|
| 1777771839 | 5° C | 69% | 1023 hPa | 0 mm | - | 0 W/m² | - |
| 1777771537 | 5° C | 68% | 1022.9 hPa | 0 mm | - | 0 W/m² | - |
| 1777771233 | 5.56° C | 67% | 1022.8 hPa | 0 mm | - | 0 W/m² | - |
| 1777770929 | 5.56° C | 65% | 1022.8 hPa | 0 mm | - | 0 W/m² | - |
| 1777770627 | 5.56° C | 65% | 1022.7 hPa | 0 mm | - | 0 W/m² | - |
| 1777770323 | 5.56° C | 64% | 1022.6 hPa | 0 mm | - | 0 W/m² | - |
| 1777770021 | 5.56° C | 64% | 1022.9 hPa | 0 mm | - | 0 W/m² | - |
| 1777769718 | 5.56° C | 63% | 1022.7 hPa | 0 mm | - | 0 W/m² | - |
| 1777769415 | 6.11° C | 64% | 1022.8 hPa | 0 mm | - | 0 W/m² | - |
| 1777769111 | 6.11° C | 65% | 1022.5 hPa | 0 mm | - | 0 W/m² | - |
| 1777768809 | 6.11° C | 63% | 1022.5 hPa | 0 mm | - | 0 W/m² | - |
| 1777768505 | 6.67° C | 63% | 1022.6 hPa | 0 mm | - | 0 W/m² | - |
| 1777768203 | 6.67° C | 61% | 1022.6 hPa | 0 mm | - | 1 W/m² | - |
| 1777767900 | 6.67° C | 61% | 1022.3 hPa | 0 mm | - | 3 W/m² | - |
| 1777767595 | 6.67° C | 61% | 1022.3 hPa | 0 mm | - | 7 W/m² | - |
| 1777767293 | 7.22° C | 62% | 1021.9 hPa | 0 mm | - | 10 W/m² | - |
| 1777766990 | 7.22° C | 58% | 1022.2 hPa | 0 mm | - | 14 W/m² | - |
| 1777766687 | 7.78° C | 56% | 1022.3 hPa | 0 mm | - | 19 W/m² | - |
| 1777766385 | 7.78° C | 56% | 1022.1 hPa | 0 mm | - | 23 W/m² | - |
| 1777766081 | 7.78° C | 58% | 1022.1 hPa | 0 mm | - | 26 W/m² | - |
| 1777765779 | 7.78° C | 58% | 1022.3 hPa | 0 mm | - | 28 W/m² | - |
| 1777765475 | 8.33° C | 55% | 1022.1 hPa | 0 mm | - | 35 W/m² | - |
| 1777765172 | 8.89° C | 51% | 1022.2 hPa | 0 mm | - | 39 W/m² | - |
| 1777764868 | 8.89° C | 53% | 1021.8 hPa | 0 mm | - | 47 W/m² | - |
| 1777764565 | 8.89° C | 51% | 1022.1 hPa | 0 mm | - | 48 W/m² | - |
* Rain latest hour (hover to see other rain measurements)
** Current wind speed in m/s (hover to see current wind gust speed)